ONEWEB-0627 (55168 NORAD) Tracking and Keplerian Element Data

This shows tracking and keplerian element data for the satellite.

Feedback or suggestion? Click here.




ElementValue
Catalog55168
NameONEWEB-0627
Epoch Orbit1125
Epoch Day85.25001157
Epoch Year2023
RAAN253.4588
Inclination86.6233
Eccentricity0.0002354
Argument of Perigee6.9268
Mean Anonmoly56.8582
Mean Motion14.65668756
Decay Rate0.0002105
L11 55168U 23004AE 23085.25001157 .00021050 00000+0 38593-2 0 9990
L22 55168 86.6233 253.4588 0002354 6.9268 56.8582 14.65668756 11252



Live tracking and technical data element details for ONEWEB-0627 (NORAD 55168). ONEWEB-0627 can be tracked NOW for your location showing map with azimuth and elevation plus other details from your city location.







IsCatalogInMostPopularTable: catalog: 55168, numindb: 11
Update: records affected: 1



GetName: 55168 ONEWEB-0627

Hit Count: updated at: Mon, 27 Mar 2023 07:58:59 GMT